Location: Baia Mare
(47.6567°N, 23.5850°E)
Time: 04:03:46
(UTC+03:00)

ISS - Pass Details

Date: 02 September 2018
Orbit: 402 x 408 km, 51.6° (Epoch: 20 September)

Event Time Altitude Azimuth Distance (km) Brightness Sun altitude
Exits shadow 04:24:49 12° 130° (SE) 1,328 -1.1 -21.7°
Drops below altitude 10° 04:26:00 10° 109° (ESE) 1,457 -0.7 -21.6°
Sets 04:29:03 0° 78° (ENE) 2,320 1.1 -21.2°
